Tracking 29892 objects as of 21-Nov-2024
HD Live streaming from Space Station
objects crossing your sky now

TITAN 3C TRANSTAGE R/B

Track TITAN 3C TRANSTAGE R/B now!


NORAD ID: 11940
Int'l Code: 1973-040B
Perigee: 35,864.0 km
Apogee: 36,123.8 km
Inclination: 2.4 °
Period: 1,446.3 minutes
Semi major axis: 42364 km
RCS: Unknown
Launch date: June 12, 1973
Source: United States (US)
Launch site: AIR FORCE EASTERN TEST RANGE (AFETR)

Note: This is a ROCKET BODY
Your satellite tracking list
Your tracking list is empty




NASA's NSSDC Master Catalog

Two Line Element Set (TLE):
1 11940U 73040B   24324.99012931  .00000079  00000-0  00000-0 0  9994
2 11940   2.4384 260.0097 0030657  54.0659 306.5431  0.99561976 20918
Source of the keplerian elements: McCants